"Sample Date","Sample Time","Sample Value","Units","Flow Rate","Sample Interval","Number Channels","Micron Size 0","Counts/Channel 0","Micron Size 1","Counts/Channel 1","Micron Size 2","Counts/Channel 2","Micron Size 3","Counts/Channel 3","Micron Size 4","Counts/Channel 4","Micron Size 5","Counts/Channel 5","Micron Size 6","Counts/Channel 6","Micron Size 7","Counts/Channel 7","Micron Size 8","Counts/Channel 8","Micron Size 9","Counts/Channel 9","Micron Size 10","Counts/Channel 10","Micron Size 11","Counts/Channel 11","Micron Size 12","Counts/Channel 12","Micron Size 13","Counts/Channel 13","Micron Size 14","Counts/Channel 14","Micron Size 15","Counts/Channel 15","Micron Size 16","Counts/Channel 16","Micron Size 17","Counts/Channel 17","Micron Size 18","Counts/Channel 18","Micron Size 19","Counts/Channel 19","Micron Size 20","Counts/Channel 20","Micron Size 21","Counts/Channel 21","Micron Size 22","Counts/Channel 22","Micron Size 23","Counts/Channel 23","Micron Size 24","Counts/Channel 24","Micron Size 25","Counts/Channel 25","Micron Size 26","Counts/Channel 26","Micron Size 27","Counts/Channel 27","Micron Size 28","Counts/Channel 28","Micron Size 29","Counts/Channel 29","Micron Size 30","Counts/Channel 30","Micron Size 31","Counts/Channel 31"
"03/09/08","08:00:03",10812.000,"cc",28415.313,6.00,6,0.100,10370.000,0.200,413.000,0.300,27.000,0.500,2.000,1.000,0,5.000,0
"03/09/08","08:00:09",10499.000,"cc",28274.197,6.00,6,0.100,10072.000,0.200,401.000,0.300,23.000,0.500,2.000,1.000,1.000,5.000,0
"03/09/08","08:00:15",10725.000,"cc",28332.977,6.00,6,0.100,10230.000,0.200,466.000,0.300,28.000,0.500,1.000,1.000,0,5.000,0
"03/09/08","08:00:21",10760.000,"cc",28341.658,6.00,6,0.100,10328.000,0.200,413.000,0.300,18.000,0.500,0,1.000,1.000,5.000,0
"03/09/08","08:00:27",10787.000,"cc",28312.525,6.00,6,0.100,10352.000,0.200,414.000,0.300,19.000,0.500,2.000,1.000,0,5.000,0
"03/09/08","08:00:33",10607.000,"cc",28315.348,6.00,6,0.100,10192.000,0.200,402.000,0.300,11.000,0.500,2.000,1.000,0,5.000,0
"03/09/08","08:00:39",10746.000,"cc",28287.588,6.00,6,0.100,10327.000,0.200,407.000,0.300,11.000,0.500,1.000,1.000,0,5.000,0
"03/09/08","08:00:45",11183.000,"cc",28291.190,6.00,6,0.100,10674.000,0.200,478.000,0.300,29.000,0.500,2.000,1.000,0,5.000,0
"03/09/08","08:00:51",10946.000,"cc",28309.047,6.00,6,0.100,10498.000,0.200,431.000,0.300,14.000,0.500,3.000,1.000,0,5.000,0
"03/09/08","08:00:57",11052.000,"cc",28354.938,6.00,6,0.100,10558.000,0.200,464.000,0.300,29.000,0.500,1.000,1.000,0,5.000,0
"03/09/08","08:01:03",10720.000,"cc",28290.272,6.00,6,0.100,10282.000,0.200,416.000,0.300,21.000,0.500,1.000,1.000,0,5.000,0
"03/09/08","08:01:09",11097.000,"cc",28329.027,6.00,6,0.100,10639.000,0.200,431.000,0.300,24.000,0.500,3.000,1.000,0,5.000,0
"03/09/08","08:01:15",11074.000,"cc",28337.832,6.00,6,0.100,10568.000,0.200,479.000,0.300,27.000,0.500,0,1.000,0,5.000,0
"03/09/08","08:01:21",10558.000,"cc",28298.936,6.00,6,0.100,10116.000,0.200,418.000,0.300,21.000,0.500,2.000,1.000,1.000,5.000,0
"03/09/08","08:01:27",10605.000,"cc",28277.693,6.00,6,0.100,10178.000,0.200,395.000,0.300,31.000,0.500,1.000,1.000,0,5.000,0
"03/09/08","08:01:33",10729.000,"cc",28355.678,6.00,6,0.100,10296.000,0.200,404.000,0.300,25.000,0.500,4.000,1.000,0,5.000,0
"03/09/08","08:01:39",10774.000,"cc",28342.537,6.00,6,0.100,10334.000,0.200,413.000,0.300,24.000,0.500,3.000,1.000,0,5.000,0
"03/09/08","08:01:45",10915.000,"cc",28313.695,6.00,6,0.100,10425.000,0.200,467.000,0.300,23.000,0.500,0,1.000,0,5.000,0
"03/09/08","08:01:51",10834.000,"cc",28303.893,6.00,6,0.100,10354.000,0.200,456.000,0.300,20.000,0.500,4.000,1.000,0,5.000,0
"03/09/08","08:01:57",10625.000,"cc",28242.182,6.00,6,0.100,10218.000,0.200,382.000,0.300,24.000,0.500,1.000,1.000,0,5.000,0
"03/09/08","08:02:03",10663.000,"cc",28278.398,6.00,6,0.100,10269.000,0.200,373.000,0.300,20.000,0.500,1.000,1.000,0,5.000,0
"03/09/08","08:02:09",10663.000,"cc",28366.234,6.00,6,0.100,10251.000,0.200,385.000,0.300,26.000,0.500,1.000,1.000,0,5.000,0
"03/09/08","08:02:15",10687.000,"cc",28370.723,6.00,6,0.100,10230.000,0.200,433.000,0.300,24.000,0.500,0,1.000,0,5.000,0
"03/09/08","08:02:21",10771.000,"cc",28257.098,6.00,6,0.100,10315.000,0.200,424.000,0.300,29.000,0.500,3.000,1.000,0,5.000,0
"03/09/08","08:02:27",10717.000,"cc",28317.940,6.00,6,0.100,10265.000,0.200,427.000,0.300,25.000,0.500,0,1.000,0,5.000,0
"03/09/08","08:02:33",11131.000,"cc",28313.969,6.00,6,0.100,10554.000,0.200,538.000,0.300,33.000,0.500,6.000,1.000,0,5.000,0
"03/09/08","08:02:39",10843.000,"cc",28305.502,6.00,6,0.100,10398.000,0.200,419.000,0.300,25.000,0.500,1.000,1.000,0,5.000,0
"03/09/08","08:02:45",11104.000,"cc",28350.447,6.00,6,0.100,10605.000,0.200,468.000,0.300,29.000,0.500,1.000,1.000,1.000,5.000,0
"03/09/08","08:02:51",10593.000,"cc",28334.656,6.00,6,0.100,10140.000,0.200,427.000,0.300,24.000,0.500,2.000,1.000,0,5.000,0
"03/09/08","08:02:57",11018.000,"cc",28202.682,6.00,6,0.100,10498.000,0.200,489.000,0.300,30.000,0.500,1.000,1.000,0,5.000,0
"03/09/08","08:03:03",11086.000,"cc",28400.346,6.00,6,0.100,10587.000,0.200,469.000,0.300,27.000,0.500,3.000,1.000,0,5.000,0
"03/09/08","08:03:09",10900.000,"cc",28383.828,6.00,6,0.100,10409.000,0.200,459.000,0.300,29.000,0.500,3.000,1.000,0,5.000,0
"03/09/08","08:03:15",11121.000,"cc",28358.686,6.00,6,0.100,10613.000,0.200,479.000,0.300,27.000,0.500,2.000,1.000,0,5.000,0
"03/09/08","08:03:21",10657.000,"cc",28226.363,6.00,6,0.100,10194.000,0.200,437.000,0.300,20.000,0.500,6.000,1.000,0,5.000,0
"03/09/08","08:03:27",10896.000,"cc",28339.588,6.00,6,0.100,10480.000,0.200,393.000,0.300,21.000,0.500,2.000,1.000,0,5.000,0
"03/09/08","08:03:33",11078.000,"cc",28264.486,6.00,6,0.100,10556.000,0.200,486.000,0.300,34.000,0.500,2.000,1.000,0,5.000,0
"03/09/08","08:03:39",10859.000,"cc",28221.172,6.00,6,0.100,10353.000,0.200,473.000,0.300,29.000,0.500,4.000,1.000,0,5.000,0
"03/09/08","08:03:45",11103.000,"cc",28340.211,6.00,6,0.100,10603.000,0.200,465.000,0.300,33.000,0.500,2.000,1.000,0,5.000,0
"03/09/08","08:03:51",11212.000,"cc",28332.273,6.00,6,0.100,10726.000,0.200,451.000,0.300,34.000,0.500,1.000,1.000,0,5.000,0
"03/09/08","08:03:57",11154.000,"cc",28276.479,6.00,6,0.100,10697.000,0.200,425.000,0.300,30.000,0.500,2.000,1.000,0,5.000,0
"03/09/08","08:04:03",11417.000,"cc",28280.107,6.00,6,0.100,10889.000,0.200,486.000,0.300,38.000,0.500,4.000,1.000,0,5.000,0
"03/09/08","08:04:09",11001.000,"cc",28332.147,6.00,6,0.100,10490.000,0.200,477.000,0.300,33.000,0.500,1.000,1.000,0,5.000,0
"03/09/08","08:04:15",11101.000,"cc",28408.846,6.00,6,0.100,10567.000,0.200,491.000,0.300,41.000,0.500,2.000,1.000,0,5.000,0
"03/09/08","08:04:21",11242.000,"cc",28349.281,6.00,6,0.100,10765.000,0.200,435.000,0.300,38.000,0.500,4.000,1.000,0,5.000,0
"03/09/08","08:04:27",10854.000,"cc",28257.115,6.00,6,0.100,10357.000,0.200,458.000,0.300,37.000,0.500,2.000,1.000,0,5.000,0
"03/09/08","08:04:33",11321.000,"cc",28279.619,6.00,6,0.100,10802.000,0.200,485.000,0.300,32.000,0.500,2.000,1.000,0,5.000,0
"03/09/08","08:04:39",10587.000,"cc",28374.307,6.00,6,0.100,10131.000,0.200,426.000,0.300,30.000,0.500,0,1.000,0,5.000,0
"03/09/08","08:04:45",11214.000,"cc",28322.379,6.00,6,0.100,10750.000,0.200,427.000,0.300,35.000,0.500,2.000,1.000,0,5.000,0
"03/09/08","08:04:51",11186.000,"cc",28334.754,6.00,6,0.100,10697.000,0.200,461.000,0.300,27.000,0.500,1.000,1.000,0,5.000,0
"03/09/08","08:04:57",11527.000,"cc",28320.885,6.00,6,0.100,10998.000,0.200,496.000,0.300,31.000,0.500,2.000,1.000,0,5.000,0
"03/09/08","08:05:03",11378.000,"cc",28385.293,6.00,6,0.100,10867.000,0.200,456.000,0.300,50.000,0.500,5.000,1.000,0,5.000,0
"03/09/08","08:05:09",11396.000,"cc",28286.391,6.00,6,0.100,10868.000,0.200,492.000,0.300,35.000,0.500,1.000,1.000,0,5.000,0
"03/09/08","08:05:15",11592.000,"cc",28284.887,6.00,6,0.100,10991.000,0.200,537.000,0.300,61.000,0.500,3.000,1.000,0,5.000,0
"03/09/08","08:05:21",11336.000,"cc",28251.570,6.00,6,0.100,10843.000,0.200,458.000,0.300,33.000,0.500,2.000,1.000,0,5.000,0
"03/09/08","08:05:27",11600.000,"cc",28368.783,6.00,6,0.100,11025.000,0.200,534.000,0.300,41.000,0.500,0,1.000,0,5.000,0
"03/09/08","08:05:33",11477.000,"cc",28382.592,6.00,6,0.100,10969.000,0.200,474.000,0.300,32.000,0.500,2.000,1.000,0,5.000,0
"03/09/08","08:05:39",11637.000,"cc",28309.227,6.00,6,0.100,11092.000,0.200,497.000,0.300,46.000,0.500,2.000,1.000,0,5.000,0
"03/09/08","08:05:45",11685.000,"cc",28321.695,6.00,6,0.100,11170.000,0.200,483.000,0.300,31.000,0.500,1.000,1.000,0,5.000,0
"03/09/08","08:05:51",11587.000,"cc",28279.336,6.00,6,0.100,11022.000,0.200,515.000,0.300,45.000,0.500,5.000,1.000,0,5.000,0
"03/09/08","08:05:57",11694.000,"cc",28362.754,6.00,6,0.100,11119.000,0.200,527.000,0.300,44.000,0.500,4.000,1.000,0,5.000,0
"03/09/08","08:06:03",11692.000,"cc",28303.436,6.00,6,0.100,11176.000,0.200,484.000,0.300,31.000,0.500,1.000,1.000,0,5.000,0
"03/09/08","08:06:09",11561.000,"cc",28316.111,6.00,6,0.100,10981.000,0.200,528.000,0.300,49.000,0.500,3.000,1.000,0,5.000,0
"03/09/08","08:06:15",11285.000,"cc",28328.740,6.00,6,0.100,10783.000,0.200,460.000,0.300,40.000,0.500,2.000,1.000,0,5.000,0
"03/09/08","08:06:21",11353.000,"cc",28327.065,6.00,6,0.100,10842.000,0.200,452.000,0.300,52.000,0.500,7.000,1.000,0,5.000,0
"03/09/08","08:06:27",11507.000,"cc",28226.588,6.00,6,0.100,10979.000,0.200,483.000,0.300,42.000,0.500,3.000,1.000,0,5.000,0
"03/09/08","08:06:33",11741.000,"cc",28424.467,6.00,6,0.100,11139.000,0.200,547.000,0.300,50.000,0.500,5.000,1.000,0,5.000,0
"03/09/08","08:06:39",11622.000,"cc",28373.150,6.00,6,0.100,11115.000,0.200,467.000,0.300,36.000,0.500,4.000,1.000,0,5.000,0
"03/09/08","08:06:45",11529.000,"cc",28246.131,6.00,6,0.100,10962.000,0.200,523.000,0.300,42.000,0.500,2.000,1.000,0,5.000,0
"03/09/08","08:06:51",11875.000,"cc",28322.799,6.00,6,0.100,11252.000,0.200,576.000,0.300,45.000,0.500,2.000,1.000,0,5.000,0
"03/09/08","08:06:57",11767.000,"cc",28416.102,6.00,6,0.100,11172.000,0.200,550.000,0.300,42.000,0.500,3.000,1.000,0,5.000,0
"03/09/08","08:07:03",11476.000,"cc",28272.344,6.00,6,0.100,10935.000,0.200,489.000,0.300,45.000,0.500,5.000,1.000,2.000,5.000,0
"03/09/08","08:07:09",11444.000,"cc",28298.008,6.00,6,0.100,10881.000,0.200,513.000,0.300,46.000,0.500,4.000,1.000,0,5.000,0
"03/09/08","08:07:15",11569.000,"cc",28219.023,6.00,6,0.100,10989.000,0.200,529.000,0.300,47.000,0.500,4.000,1.000,0,5.000,0
"03/09/08","08:07:21",11440.000,"cc",28324.420,6.00,6,0.100,10897.000,0.200,504.000,0.300,38.000,0.500,1.000,1.000,0,5.000,0
"03/09/08","08:07:27",11096.000,"cc",28442.670,6.00,6,0.100,10604.000,0.200,459.000,0.300,31.000,0.500,2.000,1.000,0,5.000,0
"03/09/08","08:07:33",11539.000,"cc",28303.727,6.00,6,0.100,11016.000,0.200,478.000,0.300,43.000,0.500,2.000,1.000,0,5.000,0
"03/09/08","08:07:39",11371.000,"cc",28353.369,6.00,6,0.100,10842.000,0.200,500.000,0.300,26.000,0.500,3.000,1.000,0,5.000,0
"03/09/08","08:07:45",11526.000,"cc",28283.617,6.00,6,0.100,11034.000,0.200,449.000,0.300,39.000,0.500,4.000,1.000,0,5.000,0
"03/09/08","08:07:51",11258.000,"cc",28371.832,6.00,6,0.100,10758.000,0.200,458.000,0.300,38.000,0.500,4.000,1.000,0,5.000,0
"03/09/08","08:07:57",11284.000,"cc",28313.162,6.00,6,0.100,10745.000,0.200,505.000,0.300,32.000,0.500,2.000,1.000,0,5.000,0
"03/09/08","08:08:03",11366.000,"cc",28235.223,6.00,6,0.100,10842.000,0.200,481.000,0.300,42.000,0.500,1.000,1.000,0,5.000,0
"03/09/08","08:08:09",11460.000,"cc",28372.381,6.00,6,0.100,10928.000,0.200,485.000,0.300,42.000,0.500,5.000,1.000,0,5.000,0
"03/09/08","08:08:15",11331.000,"cc",28326.863,6.00,6,0.100,10797.000,0.200,497.000,0.300,37.000,0.500,0,1.000,0,5.000,0
"03/09/08","08:08:21",11405.000,"cc",28318.553,6.00,6,0.100,10887.000,0.200,473.000,0.300,41.000,0.500,4.000,1.000,0,5.000,0
"03/09/08","08:08:27",10960.000,"cc",28331.426,6.00,6,0.100,10538.000,0.200,391.000,0.300,28.000,0.500,3.000,1.000,0,5.000,0
"03/09/08","08:08:33",11592.000,"cc",28293.607,6.00,6,0.100,10985.000,0.200,560.000,0.300,44.000,0.500,3.000,1.000,0,5.000,0
"03/09/08","08:08:39",11311.000,"cc",28298.164,6.00,6,0.100,10786.000,0.200,476.000,0.300,47.000,0.500,2.000,1.000,0,5.000,0
"03/09/08","08:08:45",11450.000,"cc",28367.957,6.00,6,0.100,10920.000,0.200,483.000,0.300,43.000,0.500,4.000,1.000,0,5.000,0
"03/09/08","08:08:51",11297.000,"cc",28314.170,6.00,6,0.100,10844.000,0.200,416.000,0.300,34.000,0.500,2.000,1.000,1.000,5.000,0
"03/09/08","08:08:57",11331.000,"cc",28290.231,6.00,6,0.100,10852.000,0.200,437.000,0.300,37.000,0.500,5.000,1.000,0,5.000,0
"03/09/08","08:09:03",11207.000,"cc",28269.469,6.00,6,0.100,10783.000,0.200,396.000,0.300,26.000,0.500,2.000,1.000,0,5.000,0
"03/09/08","08:09:09",11206.000,"cc",28308.197,6.00,6,0.100,10697.000,0.200,467.000,0.300,39.000,0.500,3.000,1.000,0,5.000,0
"03/09/08","08:09:15",11554.000,"cc",28337.641,6.00,6,0.100,11009.000,0.200,504.000,0.300,37.000,0.500,4.000,1.000,0,5.000,0
"03/09/08","08:09:21",11297.000,"cc",28292.203,6.00,6,0.100,10762.000,0.200,496.000,0.300,36.000,0.500,3.000,1.000,0,5.000,0
"03/09/08","08:09:27",11098.000,"cc",28362.369,6.00,6,0.100,10547.000,0.200,503.000,0.300,43.000,0.500,5.000,1.000,0,5.000,0
"03/09/08","08:09:33",11309.000,"cc",28366.326,6.00,6,0.100,10791.000,0.200,481.000,0.300,32.000,0.500,5.000,1.000,0,5.000,0
"03/09/08","08:09:39",11284.000,"cc",28393.418,6.00,6,0.100,10745.000,0.200,499.000,0.300,38.000,0.500,2.000,1.000,0,5.000,0
"03/09/08","08:09:45",11475.000,"cc",28251.813,6.00,6,0.100,10914.000,0.200,517.000,0.300,39.000,0.500,4.000,1.000,1.000,5.000,0
"03/09/08","08:09:51",11384.000,"cc",28305.848,6.00,6,0.100,10867.000,0.200,482.000,0.300,31.000,0.500,4.000,1.000,0,5.000,0
"03/09/08","08:09:57",11225.000,"cc",28310.586,6.00,6,0.100,10721.000,0.200,473.000,0.300,30.000,0.500,1.000,1.000,0,5.000,0
"03/09/08","08:10:03",11435.000,"cc",28313.660,6.00,6,0.100,10890.000,0.200,507.000,0.300,34.000,0.500,4.000,1.000,0,5.000,0
"03/09/08","08:10:09",11271.000,"cc",28327.330,6.00,6,0.100,10798.000,0.200,439.000,0.300,32.000,0.500,2.000,1.000,0,5.000,0
"03/09/08","08:10:15",11101.000,"cc",28363.346,6.00,6,0.100,10628.000,0.200,438.000,0.300,33.000,0.500,2.000,1.000,0,5.000,0
"03/09/08","08:10:21",11036.000,"cc",28244.629,6.00,6,0.100,10536.000,0.200,467.000,0.300,33.000,0.500,0,1.000,0,5.000,0
"03/09/08","08:10:27",11251.000,"cc",28369.824,6.00,6,0.100,10722.000,0.200,500.000,0.300,27.000,0.500,2.000,1.000,0,5.000,0
"03/09/08","08:10:33",11259.000,"cc",28267.309,6.00,6,0.100,10675.000,0.200,542.000,0.300,40.000,0.500,1.000,1.000,1.000,5.000,0
"03/09/08","08:10:39",11427.000,"cc",28358.119,6.00,6,0.100,10878.000,0.200,520.000,0.300,26.000,0.500,3.000,1.000,0,5.000,0
"03/09/08","08:10:45",11048.000,"cc",28325.643,6.00,6,0.100,10563.000,0.200,444.000,0.300,39.000,0.500,2.000,1.000,0,5.000,0
"03/09/08","08:10:51",11150.000,"cc",28275.260,6.00,6,0.100,10662.000,0.200,459.000,0.300,28.000,0.500,1.000,1.000,0,5.000,0
"03/09/08","08:10:57",11156.000,"cc",28301.500,6.00,6,0.100,10651.000,0.200,460.000,0.300,45.000,0.500,0,1.000,0,5.000,0
"03/09/08","08:11:03",11353.000,"cc",28312.547,6.00,6,0.100,10821.000,0.200,493.000,0.300,37.000,0.500,2.000,1.000,0,5.000,0
"03/09/08","08:11:09",11062.000,"cc",28305.736,6.00,6,0.100,10549.000,0.200,470.000,0.300,40.000,0.500,2.000,1.000,1.000,5.000,0
"03/09/08","08:11:15",11296.000,"cc",28339.215,6.00,6,0.100,10700.000,0.200,557.000,0.300,36.000,0.500,2.000,1.000,1.000,5.000,0
"03/09/08","08:11:21",11082.000,"cc",28403.721,6.00,6,0.100,10607.000,0.200,456.000,0.300,18.000,0.500,1.000,1.000,0,5.000,0
"03/09/08","08:11:27",10960.000,"cc",28303.252,6.00,6,0.100,10506.000,0.200,431.000,0.300,22.000,0.500,1.000,1.000,0,5.000,0
"03/09/08","08:11:33",10708.000,"cc",28260.922,6.00,6,0.100,10265.000,0.200,413.000,0.300,27.000,0.500,3.000,1.000,0,5.000,0
"03/09/08","08:11:39",10776.000,"cc",28347.914,6.00,6,0.100,10324.000,0.200,427.000,0.300,23.000,0.500,2.000,1.000,0,5.000,0
"03/09/08","08:11:45",11059.000,"cc",28285.477,6.00,6,0.100,10553.000,0.200,461.000,0.300,44.000,0.500,1.000,1.000,0,5.000,0
"03/09/08","08:11:51",11014.000,"cc",28334.516,6.00,6,0.100,10504.000,0.200,474.000,0.300,35.000,0.500,1.000,1.000,0,5.000,0
"03/09/08","08:11:57",11229.000,"cc",28202.654,6.00,6,0.100,10651.000,0.200,538.000,0.300,39.000,0.500,1.000,1.000,0,5.000,0
"03/09/08","08:12:03",11124.000,"cc",28327.623,6.00,6,0.100,10604.000,0.200,479.000,0.300,41.000,0.500,0,1.000,0,5.000,0
"03/09/08","08:12:09",11181.000,"cc",28391.029,6.00,6,0.100,10658.000,0.200,477.000,0.300,41.000,0.500,4.000,1.000,1.000,5.000,0
"03/09/08","08:12:15",10857.000,"cc",28395.576,6.00,6,0.100,10369.000,0.200,449.000,0.300,37.000,0.500,2.000,1.000,0,5.000,0
"03/09/08","08:12:21",11255.000,"cc",28247.420,6.00,6,0.100,10658.000,0.200,531.000,0.300,56.000,0.500,10.000,1.000,0,5.000,0
"03/09/08","08:12:27",11023.000,"cc",28378.807,6.00,6,0.100,10572.000,0.200,412.000,0.300,37.000,0.500,2.000,1.000,0,5.000,0
"03/09/08","08:12:33",11149.000,"cc",28337.568,6.00,6,0.100,10597.000,0.200,511.000,0.300,40.000,0.500,1.000,1.000,0,5.000,0
"03/09/08","08:12:39",11135.000,"cc",28242.301,6.00,6,0.100,10625.000,0.200,472.000,0.300,37.000,0.500,1.000,1.000,0,5.000,0
"03/09/08","08:12:45",11065.000,"cc",28305.945,6.00,6,0.100,10517.000,0.200,510.000,0.300,35.000,0.500,3.000,1.000,0,5.000,0
"03/09/08","08:12:51",10846.000,"cc",28359.158,6.00,6,0.100,10325.000,0.200,478.000,0.300,39.000,0.500,3.000,1.000,1.000,5.000,0
"03/09/08","08:12:57",11259.000,"cc",28275.176,6.00,6,0.100,10666.000,0.200,554.000,0.300,34.000,0.500,5.000,1.000,0,5.000,0
"03/09/08","08:13:03",11199.000,"cc",28346.938,6.00,6,0.100,10664.000,0.200,487.000,0.300,41.000,0.500,7.000,1.000,0,5.000,0
"03/09/08","08:13:09",11132.000,"cc",28250.523,6.00,6,0.100,10639.000,0.200,448.000,0.300,39.000,0.500,6.000,1.000,0,5.000,0
"03/09/08","08:13:15",11138.000,"cc",28331.611,6.00,6,0.100,10561.000,0.200,525.000,0.300,49.000,0.500,2.000,1.000,1.000,5.000,0
"03/09/08","08:13:21",11077.000,"cc",28248.309,6.00,6,0.100,10571.000,0.200,468.000,0.300,37.000,0.500,1.000,1.000,0,5.000,0
"03/09/08","08:13:27",10959.000,"cc",28322.426,6.00,6,0.100,10425.000,0.200,500.000,0.300,30.000,0.500,3.000,1.000,1.000,5.000,0
"03/09/08","08:13:33",10991.000,"cc",28265.147,6.00,6,0.100,10489.000,0.200,458.000,0.300,41.000,0.500,3.000,1.000,0,5.000,0
"03/09/08","08:13:39",10958.000,"cc",28342.779,6.00,6,0.100,10438.000,0.200,468.000,0.300,46.000,0.500,6.000,1.000,0,5.000,0
"03/09/08","08:13:45",11106.000,"cc",28398.092,6.00,6,0.100,10558.000,0.200,509.000,0.300,37.000,0.500,2.000,1.000,0,5.000,0
"03/09/08","08:13:51",11143.000,"cc",28264.332,6.00,6,0.100,10546.000,0.200,559.000,0.300,37.000,0.500,1.000,1.000,0,5.000,0
"03/09/08","08:13:57",10972.000,"cc",28294.432,6.00,6,0.100,10467.000,0.200,476.000,0.300,26.000,0.500,3.000,1.000,0,5.000,0
"03/09/08","08:14:03",11104.000,"cc",28234.811,6.00,6,0.100,10553.000,0.200,499.000,0.300,51.000,0.500,1.000,1.000,0,5.000,0
"03/09/08","08:14:09",11084.000,"cc",28443.242,6.00,6,0.100,10559.000,0.200,489.000,0.300,32.000,0.500,4.000,1.000,0,5.000,0
"03/09/08","08:14:15",10892.000,"cc",28317.154,6.00,6,0.100,10356.000,0.200,503.000,0.300,32.000,0.500,1.000,1.000,0,5.000,0
"03/09/08","08:14:21",11212.000,"cc",28328.285,6.00,6,0.100,10642.000,0.200,532.000,0.300,34.000,0.500,2.000,1.000,2.000,5.000,0
"03/09/08","08:14:27",11358.000,"cc",28301.680,6.00,6,0.100,10794.000,0.200,523.000,0.300,39.000,0.500,2.000,1.000,0,5.000,0
"03/09/08","08:14:33",10919.000,"cc",28416.998,6.00,6,0.100,10405.000,0.200,480.000,0.300,33.000,0.500,1.000,1.000,0,5.000,0
"03/09/08","08:14:39",10554.000,"cc",28316.166,6.00,6,0.100,10056.000,0.200,471.000,0.300,27.000,0.500,0,1.000,0,5.000,0
"03/09/08","08:14:45",10820.000,"cc",28196.156,6.00,6,0.100,10307.000,0.200,473.000,0.300,38.000,0.500,2.000,1.000,0,5.000,0
"03/09/08","08:14:51",11021.000,"cc",28316.590,6.00,6,0.100,10483.000,0.200,496.000,0.300,42.000,0.500,0,1.000,0,5.000,0
"03/09/08","08:14:57",10920.000,"cc",28348.051,6.00,6,0.100,10422.000,0.200,465.000,0.300,33.000,0.500,0,1.000,0,5.000,0
"03/09/08","08:15:03",11150.000,"cc",28308.768,6.00,6,0.100,10560.000,0.200,546.000,0.300,42.000,0.500,2.000,1.000,0,5.000,0
"03/09/08","08:15:09",11059.000,"cc",28293.783,6.00,6,0.100,10482.000,0.200,522.000,0.300,53.000,0.500,2.000,1.000,0,5.000,0
"03/09/08","08:15:15",10972.000,"cc",28341.992,6.00,6,0.100,10416.000,0.200,515.000,0.300,39.000,0.500,2.000,1.000,0,5.000,0
"03/09/08","08:15:21",11124.000,"cc",28289.018,6.00,6,0.100,10633.000,0.200,462.000,0.300,27.000,0.500,2.000,1.000,0,5.000,0
"03/09/08","08:15:27",10848.000,"cc",28345.633,6.00,6,0.100,10331.000,0.200,480.000,0.300,33.000,0.500,4.000,1.000,0,5.000,0
"03/09/08","08:15:33",11165.000,"cc",28344.840,6.00,6,0.100,10589.000,0.200,536.000,0.300,35.000,0.500,4.000,1.000,1.000,5.000,0
"03/09/08","08:15:39",10980.000,"cc",28284.041,6.00,6,0.100,10479.000,0.200,466.000,0.300,33.000,0.500,2.000,1.000,0,5.000,0
"03/09/08","08:15:45",10982.000,"cc",28337.213,6.00,6,0.100,10431.000,0.200,500.000,0.300,49.000,0.500,2.000,1.000,0,5.000,0
"03/09/08","08:15:51",10757.000,"cc",28371.459,6.00,6,0.100,10252.000,0.200,478.000,0.300,26.000,0.500,1.000,1.000,0,5.000,0
"03/09/08","08:15:57",10810.000,"cc",28198.945,6.00,6,0.100,10332.000,0.200,443.000,0.300,31.000,0.500,4.000,1.000,0,5.000,0
"03/09/08","08:16:03",10971.000,"cc",28369.703,6.00,6,0.100,10423.000,0.200,498.000,0.300,46.000,0.500,3.000,1.000,1.000,5.000,0
"03/09/08","08:16:09",10972.000,"cc",28393.652,6.00,6,0.100,10449.000,0.200,485.000,0.300,35.000,0.500,3.000,1.000,0,5.000,0
"03/09/08","08:16:15",10957.000,"cc",28333.619,6.00,6,0.100,10408.000,0.200,506.000,0.300,39.000,0.500,4.000,1.000,0,5.000,0
"03/09/08","08:16:21",10744.000,"cc",28285.875,6.00,6,0.100,10247.000,0.200,465.000,0.300,30.000,0.500,2.000,1.000,0,5.000,0
"03/09/08","08:16:27",10930.000,"cc",28319.955,6.00,6,0.100,10381.000,0.200,512.000,0.300,37.000,0.500,0,1.000,0,5.000,0
"03/09/08","08:16:33",10998.000,"cc",28342.133,6.00,6,0.100,10475.000,0.200,481.000,0.300,39.000,0.500,3.000,1.000,0,5.000,0
"03/09/08","08:16:39",10866.000,"cc",28227.647,6.00,6,0.100,10320.000,0.200,517.000,0.300,28.000,0.500,1.000,1.000,0,5.000,0
"03/09/08","08:16:45",10896.000,"cc",28283.746,6.00,6,0.100,10344.000,0.200,512.000,0.300,36.000,0.500,4.000,1.000,0,5.000,0
"03/09/08","08:16:51",10706.000,"cc",28377.438,6.00,6,0.100,10218.000,0.200,451.000,0.300,32.000,0.500,5.000,1.000,0,5.000,0
"03/09/08","08:16:57",10341.000,"cc",28268.473,6.00,6,0.100,9848.000,0.200,453.000,0.300,36.000,0.500,2.000,1.000,2.000,5.000,0
"03/09/08","08:17:03",10814.000,"cc",28284.916,6.00,6,0.100,10270.000,0.200,510.000,0.300,33.000,0.500,1.000,1.000,0,5.000,0
"03/09/08","08:17:09",10484.000,"cc",28246.873,6.00,6,0.100,9974.000,0.200,480.000,0.300,28.000,0.500,2.000,1.000,0,5.000,0
"03/09/08","08:17:15",11084.000,"cc",28373.670,6.00,6,0.100,10483.000,0.200,545.000,0.300,53.000,0.500,2.000,1.000,1.000,5.000,0
"03/09/08","08:17:21",10893.000,"cc",28401.582,6.00,6,0.100,10323.000,0.200,523.000,0.300,45.000,0.500,2.000,1.000,0,5.000,0
"03/09/08","08:17:27",10919.000,"cc",28347.826,6.00,6,0.100,10353.000,0.200,514.000,0.300,48.000,0.500,4.000,1.000,0,5.000,0
"03/09/08","08:17:33",10823.000,"cc",28447.397,6.00,6,0.100,10240.000,0.200,540.000,0.300,33.000,0.500,6.000,1.000,3.000,5.000,1.000
"03/09/08","08:17:39",10614.000,"cc",28417.838,6.00,6,0.100,10068.000,0.200,505.000,0.300,37.000,0.500,3.000,1.000,1.000,5.000,0
"03/09/08","08:17:45",10895.000,"cc",28406.400,6.00,6,0.100,10312.000,0.200,528.000,0.300,52.000,0.500,3.000,1.000,0,5.000,0
"03/09/08","08:17:51",10926.000,"cc",28340.613,6.00,6,0.100,10285.000,0.200,579.000,0.300,54.000,0.500,6.000,1.000,2.000,5.000,0
"03/09/08","08:17:57",11041.000,"cc",28312.895,6.00,6,0.100,10428.000,0.200,564.000,0.300,44.000,0.500,5.000,1.000,0,5.000,0